{"data":{"norad_id":66870,"intl_designator":"2025-281Y","name":"STARLINK-36114","alt_names":[],"object_type":"PAYLOAD","status":"ACTIVE","operator":null,"country":"US","launch_date":"2025-12-02","launch_site_code":"AFETR","launch_vehicle":null,"mission":null,"orbit_class":"UNKNOWN","rcs_meters":null,"size_class":null,"mass_kg":null,"dimensions":null,"purposes":["comms"],"wikipedia_slug":null,"has_3d_model":false,"image_url":null,"decayed_at":null,"tle_current":{"epoch":"2026-05-25T01:28:12.360288Z","epoch_age_seconds":73249,"freshness":"FRESH","line1":"1 66870U 25281Y   26145.06125417  .00003012  00000+0  11895-3 0  9991","line2":"2 66870  43.0018 272.3329 0001892 269.3913  90.6722 15.27576991 27856","mean_motion":15.27576991,"eccentricity":0.0001892,"inclination_deg":43.0018,"raan_deg":272.3329,"arg_perigee_deg":269.3913,"mean_anomaly_deg":90.6722,"bstar":0.00011895,"rev_number":2785,"period_min":94.266934398988,"perigee_km":481.75996796885,"apogee_km":484.356244197,"semimajor_km":6861.1951060829,"source":"CELESTRAK","updated_at":"2026-05-25T13:38:21.374547Z"}}}